Tracking 31027 objects as of 19-Jul-2025
HD Live streaming from Space Station
objects crossing your sky now

BLOCK DM-SL R/B

Track BLOCK DM-SL R/B now!


NORAD ID: 29350
Int'l Code: 2006-034B
Perigee: 2,883.5 km
Apogee: 35,542.5 km
Inclination: 0.9 °
Period: 678.8 minutes
Semi major axis: 25584 km
RCS: 20.125 m2 (large)
Launch date: August 22, 2006
Source: Sea Launch (SEAL)
Launch site: SEA LAUNCH (SEAL)

Note: This is a ROCKET BODY
Your satellite tracking list
IRIDIUM 135
Track 1 satellite(s)




NASA's NSSDC Master Catalog

Two Line Element Set (TLE):
1 29350U 06034B   25199.70106402 -.00000029  00000-0  00000-0 0  9990
2 29350   0.9017  31.2658 6382687  22.4951   8.0248  2.12153168146547
Source of the keplerian elements: AFSPC